| time (UTC) | temp F | wind direction | speed knots | gust knots | rain 1hr in | rain 24hr in | rain mn in | humidity % | barometer mb |
| 20260507200030 | 91 | 250 | 1.7 | 1.7 | 0.00 | 0.00 | 0.00 | 14 | 1006.1 |
| 20260507195038 | 90 | 258 | 1.7 | 1.7 | 0.00 | 0.00 | 0.00 | 14 | 1006.4 |
| 20260507194023 | 90 | 281 | 1.7 | 1.7 | 0.00 | 0.00 | 0.00 | 15 | 1006.5 |
| 20260507193036 | 89 | 307 | 0.9 | 0.9 | 0.00 | 0.00 | 0.00 | 14 | 1006.6 |
| 20260507192042 | 89 | 243 | 1.7 | 1.7 | 0.00 | 0.00 | 0.00 | 14 | 1006.7 |
| 20260507191027 | 88 | 237 | 1.7 | 1.7 | 0.00 | 0.00 | 0.00 | 15 | 1006.8 |
| 20260507190026 | 88 | 212 | 1.7 | 1.7 | 0.00 | 0.00 | 0.00 | 15 | 1007.0 |
| 20260507185023 | 88 | 259 | 1.7 | 1.7 | 0.00 | 0.00 | 0.00 | 16 | 1007.2 |
| 20260507184022 | 87 | 307 | 1.7 | 1.7 | 0.00 | 0.00 | 0.00 | 18 | 1007.3 |
| 20260507183020 | 87 | 267 | 0.9 | 0.9 | 0.00 | 0.00 | 0.00 | 19 | 1007.4 |
| 20260507182026 | 86 | 299 | 0.9 | 0.9 | 0.00 | 0.00 | 0.00 | 19 | |
| 20260507181030 | 86 | 213 | 1.7 | 1.7 | 0.00 | 0.00 | 0.00 | 19 | |
| 20260507180028 | 85 | 305 | 0.9 | 1.7 | 0.00 | 0.00 | 0.00 | 20 | |
| 20260507175037 | 84 | 308 | 0.9 | 0.9 | 0.00 | 0.00 | 0.00 | 20 | 1008.1 |
| 20260507174038 | 84 | 261 | 0.9 | 0.9 | 0.00 | 0.00 | 0.00 | 21 | 1008.3 |
| 20260507173021 | 83 | 284 | 0.9 | 0.9 | 0.00 | 0.00 | 0.00 | 21 | 1008.3 |
| 20260507172027 | 82 | 265 | 0.9 | 0.9 | 0.00 | 0.00 | 0.00 | 22 | 1008.4 |
| 20260507171024 | 81 | 320 | 0.9 | 0.9 | 0.00 | 0.00 | 0.00 | 22 | 1008.5 |
| 20260507170039 | 80 | 232 | 0.9 | 0.9 | 0.00 | 0.00 | 0.00 | 22 | 1008.5 |
| 20260507165036 | 80 | 222 | 0.0 | 0.9 | 0.00 | 0.00 | 0.00 | 23 | 1008.6 |
| 20260507164026 | 79 | 208 | 0.9 | 0.9 | 0.00 | 0.00 | 0.00 | 23 | 1008.7 |
| 20260507163027 | 78 | 70 | 0.9 | 0.9 | 0.00 | 0.00 | 0.00 | 23 | 1008.7 |
| 20260507162040 | 78 | 240 | 0.9 | 0.9 | 0.00 | 0.00 | 0.00 | 24 | 1008.8 |
| 20260507161058 | 77 | 195 | 0.9 | 0.9 | 0.00 | 0.00 | 0.00 | 24 | 1008.8 |
| 20260507160036 | 76 | 201 | 0.0 | 0.9 | 0.00 | 0.00 | 0.00 | 25 | 1009.0 |
| 20260507155026 | 75 | 136 | 0.0 | 0.0 | 0.00 | 0.00 | 0.00 | 25 | 1009.1 |
| 20260507154022 | 75 | 264 | 0.9 | 0.9 | 0.00 | 0.00 | 0.00 | 28 | 1009.1 |
| 20260507153048 | 73 | 154 | 0.0 | 0.9 | 0.00 | 0.00 | 0.00 | 28 | 1009.2 |
| 20260507152024 | 73 | 161 | 0.9 | 0.9 | 0.00 | 0.00 | 0.00 | 29 | 1009.4 |
| 20260507151024 | 72 | 183 | 0.9 | 0.9 | 0.00 | 0.00 | 0.00 | 30 | 1009.4 |
| 20260507150023 | 71 | 214 | 0.9 | 0.9 | 0.00 | 0.00 | 0.00 | 30 | 1009.5 |
| 20260507145038 | 70 | 150 | 0.0 | 0.9 | 0.00 | 0.00 | 0.00 | 30 | 1009.5 |
| 20260507144028 | 70 | 120 | 0.9 | 0.9 | 0.00 | 0.00 | 0.00 | 31 | 1009.5 |
| 20260507143031 | 69 | 186 | 0.9 | 0.9 | 0.00 | 0.00 | 0.00 | 31 | 1009.5 |
| 20260507142038 | 69 | 171 | 0.0 | 0.9 | 0.00 | 0.00 | 0.00 | 32 | 1009.6 |
| 20260507141200 | 68 | 187 | 0.0 | 0.0 | 0.00 | 0.00 | 0.00 | 33 | 1009.5 |
| 20260507140035 | 67 | 182 | 0.0 | 0.9 | 0.00 | 0.00 | 0.00 | 33 | 1009.5 |
| 20260507135023 | 66 | 113 | 0.0 | 0.0 | 0.00 | 0.00 | 0.00 | 34 | 1009.5 |
| 20260507134029 | 65 | 0.0 | 0.0 | 0.00 | 0.00 | 0.00 | 35 | 1009.4 | |
| 20260507133035 | 64 | 0.0 | 0.0 | 0.00 | 0.00 | 0.00 | 36 | 1009.3 | |
| 20260507132040 | 63 | 0.0 | 0.9 | 0.00 | 0.00 | 0.00 | 36 | 1009.2 | |
| 20260507131035 | 63 | 0.0 | 0.0 | 0.00 | 0.00 | 0.00 | 37 | 1009.1 | |
| 20260507130020 | 63 | 0.0 | 0.0 | 0.00 | 0.00 | 0.00 | 38 | 1009.0 | |
| 20260507125027 | 63 | 0.0 | 0.0 | 0.00 | 0.00 | 0.00 | 38 | 1009.0 | |
| 20260507124031 | 63 | 0.0 | 0.0 | 0.00 | 0.00 | 0.00 | 38 | 1008.9 | |
| 20260507123021 | 64 | 0.0 | 0.0 | 0.00 | 0.00 | 0.00 | 36 | 1008.8 | |
| 20260507122035 | 64 | 0.0 | 0.0 | 0.00 | 0.00 | 0.00 | 35 | 1008.8 | |
| 20260507121034 | 64 | 0.0 | 0.0 | 0.00 | 0.00 | 0.00 | 35 | 1008.8 | |
| 20260507120022 | 64 | 0.0 | 0.0 | 0.00 | 0.00 | 0.00 | 34 | 1008.9 | |
| 20260507115027 | 65 | 0.0 | 0.0 | 0.00 | 0.00 | 0.00 | 34 | 1008.9 | |
| 20260507114023 | 65 | 0.0 | 0.0 | 0.00 | 0.00 | 0.00 | 34 | 1009.0 | |
| 20260507113023 | 65 | 0.0 | 0.0 | 0.00 | 0.00 | 0.00 | 35 | 1008.9 | |
| 20260507112040 | 65 | 333 | 0.0 | 0.0 | 0.00 | 0.00 | 0.00 | 35 | 1008.9 |
| 20260507111019 | 65 | 308 | 0.0 | 0.0 | 0.00 | 0.00 | 0.00 | 35 | 1008.9 |
| 20260507110045 | 65 | 63 | 0.9 | 0.9 | 0.00 | 0.00 | 0.00 | 35 | 1008.8 |
| 20260507105031 | 66 | 348 | 1.7 | 1.7 | 0.00 | 0.00 | 0.00 | 35 | 1008.7 |
| 20260507104042 | 66 | 2 | 1.7 | 1.7 | 0.00 | 0.00 | 0.00 | 35 | 1008.7 |
| 20260507103037 | 66 | 344 | 1.7 | 1.7 | 0.00 | 0.00 | 0.00 | 35 | 1008.8 |
| 20260507102034 | 65 | 11 | 0.9 | 1.7 | 0.00 | 0.00 | 0.00 | 36 | 1008.9 |
| 20260507101042 | 65 | 50 | 0.0 | 0.9 | 0.00 | 0.00 | 0.00 | 37 | 1009.0 |
| 20260507100029 | 65 | 0.0 | 0.0 | 0.00 | 0.00 | 0.00 | 37 | 1009.1 | |
| 20260507095034 | 66 | 0.0 | 0.0 | 0.00 | 0.00 | 0.00 | 36 | 1009.2 | |
| 20260507094034 | 66 | 0.0 | 0.0 | 0.00 | 0.00 | 0.00 | 35 | 1009.2 | |
| 20260507093023 | 66 | 0.0 | 0.0 | 0.00 | 0.00 | 0.00 | 34 | 1009.2 | |
| 20260507092019 | 67 | 0.0 | 0.0 | 0.00 | 0.00 | 0.00 | 33 | 1009.2 | |
| 20260507091025 | 67 | 42 | 0.0 | 0.0 | 0.00 | 0.00 | 0.00 | 32 | 1009.2 |
| 20260507090055 | 67 | 37 | 0.0 | 0.9 | 0.00 | 0.00 | 0.00 | 32 | 1009.2 |
| 20260507085033 | 67 | 47 | 0.9 | 0.9 | 0.00 | 0.00 | 0.00 | 32 | 1009.2 |
| 20260507084033 | 67 | 22 | 0.9 | 0.9 | 0.00 | 0.00 | 0.00 | 32 | 1009.2 |
| 20260507083021 | 67 | 42 | 0.9 | 0.9 | 0.00 | 0.00 | 0.00 | 32 | 1009.4 |
| 20260507082044 | 68 | 354 | 0.9 | 0.9 | 0.00 | 0.00 | 0.00 | 31 | 1009.4 |
| 20260507081108 | 68 | 29 | 0.9 | 0.9 | 0.00 | 0.00 | 0.00 | 30 | 1009.4 |
| 20260507080044 | 68 | 358 | 0.9 | 0.9 | 0.00 | 0.00 | 0.00 | 30 | 1009.4 |
| 20260507075022 | 69 | 67 | 0.0 | 0.9 | 0.00 | 0.00 | 0.00 | 30 | 1009.2 |
| 20260507074019 | 69 | 41 | 0.9 | 0.9 | 0.00 | 0.00 | 0.00 | 30 | 1009.4 |
| 20260507073019 | 69 | 42 | 0.9 | 0.9 | 0.00 | 0.00 | 0.00 | 30 | 1009.4 |
| 20260507072026 | 70 | 71 | 0.0 | 0.9 | 0.00 | 0.00 | 0.00 | 29 | 1009.4 |
| 20260507071026 | 70 | 40 | 0.0 | 0.9 | 0.00 | 0.00 | 0.00 | 29 | 1009.4 |
| 20260507070053 | 70 | 51 | 0.0 | 0.0 | 0.00 | 0.00 | 0.00 | 29 | 1009.5 |
| 20260507065033 | 70 | 3 | 0.0 | 0.0 | 0.00 | 0.00 | 0.00 | 27 | 1009.4 |
| 20260507064054 | 71 | 347 | 0.9 | 0.9 | 0.00 | 0.00 | 0.00 | 27 | 1009.4 |
| 20260507063022 | 71 | 3 | 0.9 | 0.9 | 0.00 | 0.00 | 0.00 | 27 | 1009.2 |
| 20260507062041 | 71 | 349 | 0.9 | 0.9 | 0.00 | 0.00 | 0.00 | 29 | 1009.2 |
| 20260507061037 | 71 | 4 | 0.9 | 1.7 | 0.00 | 0.00 | 0.00 | 29 | 1009.2 |
| 20260507060133 | 71 | 3 | 0.9 | 1.7 | 0.00 | 0.00 | 0.00 | 28 | 1009.2 |
| 20260507055107 | 71 | 342 | 0.9 | 0.9 | 0.00 | 0.00 | 0.00 | 28 | 1009.2 |
| 20260507054040 | 72 | 341 | 0.9 | 0.9 | 0.00 | 0.00 | 0.00 | 28 | 1009.2 |
| 20260507053026 | 73 | 337 | 0.9 | 0.9 | 0.00 | 0.00 | 0.00 | 26 | 1009.2 |
| 20260507052034 | 73 | 332 | 0.9 | 0.9 | 0.00 | 0.00 | 0.00 | 26 | 1009.1 |
| 20260507051033 | 73 | 349 | 0.9 | 0.9 | 0.00 | 0.00 | 0.00 | 25 | 1009.1 |
| 20260507050024 | 74 | 13 | 0.9 | 1.7 | 0.00 | 0.00 | 0.00 | 25 | 1009.1 |
| 20260507045028 | 74 | 344 | 0.9 | 1.7 | 0.00 | 0.00 | 0.00 | 24 | 1009.0 |
| 20260507044022 | 74 | 1 | 0.9 | 0.9 | 0.00 | 0.00 | 0.00 | 24 | 1009.0 |
| 20260507043024 | 74 | 22 | 0.9 | 0.9 | 0.00 | 0.00 | 0.00 | 24 | 1008.9 |
| 20260507042022 | 74 | 31 | 0.9 | 0.9 | 0.00 | 0.00 | 0.00 | 24 | 1008.9 |
| 20260507041023 | 74 | 34 | 0.0 | 0.9 | 0.00 | 0.00 | 0.00 | 24 | 1008.8 |
| 20260507040032 | 74 | 346 | 0.0 | 0.0 | 0.00 | 0.00 | 0.00 | 24 | 1008.7 |
| 20260507035020 | 75 | 23 | 0.0 | 0.0 | 0.00 | 0.00 | 0.00 | 23 | 1008.6 |
| 20260507034046 | 75 | 0.0 | 0.0 | 0.00 | 0.00 | 0.00 | 23 | 1008.5 | |
| 20260507033031 | 75 | 0.0 | 0.0 | 0.00 | 0.00 | 0.00 | 23 | 1008.4 | |
| 20260507032033 | 76 | 0.0 | 0.0 | 0.00 | 0.00 | 0.00 | 22 | 1008.2 | |
| 20260507031032 | 76 | 0.0 | 0.0 | 0.00 | 0.00 | 0.00 | 22 | 1008.1 | |
| 20260507030031 | 77 | 0.0 | 0.0 | 0.00 | 0.00 | 0.00 | 21 | 1007.9 | |
| 20260507025023 | 77 | 315 | 0.0 | 0.0 | 0.00 | 0.00 | 0.00 | 21 | 1007.7 |
| 20260507024031 | 77 | 342 | 0.9 | 0.9 | 0.00 | 0.00 | 0.00 | 21 | 1007.7 |
| 20260507023032 | 78 | 331 | 0.9 | 0.9 | 0.00 | 0.00 | 0.00 | 20 | 1007.6 |
| 20260507022023 | 78 | 299 | 0.9 | 0.9 | 0.00 | 0.00 | 0.00 | 20 | 1007.6 |
| 20260507021032 | 79 | 302 | 0.9 | 0.9 | 0.00 | 0.00 | 0.00 | 20 | 1007.5 |
| 20260507020019 | 79 | 290 | 0.9 | 1.7 | 0.00 | 0.00 | 0.00 | 20 | 1007.4 |
| 20260507015046 | 80 | 301 | 0.9 | 0.9 | 0.00 | 0.00 | 0.00 | 19 | 1007.4 |
| 20260507014034 | 80 | 279 | 0.9 | 1.7 | 0.00 | 0.00 | 0.00 | 18 | 1007.3 |
| 20260507013025 | 81 | 315 | 0.9 | 1.7 | 0.00 | 0.00 | 0.00 | 19 | 1007.3 |
| 20260507012113 | 81 | 296 | 1.7 | 1.7 | 0.00 | 0.00 | 0.00 | 20 | 1007.3 |
| 20260507011027 | 81 | 271 | 1.7 | 1.7 | 0.00 | 0.00 | 0.00 | 20 | 1007.4 |
| 20260507010025 | 82 | 269 | 0.9 | 1.7 | 0.00 | 0.00 | 0.00 | 20 | 1007.4 |
| 20260507005023 | 82 | 292 | 1.7 | 1.7 | 0.00 | 0.00 | 0.00 | 20 | 1007.3 |
| 20260507004043 | 82 | 274 | 1.7 | 1.7 | 0.00 | 0.00 | 0.00 | 20 | 1007.3 |
| 20260507003040 | 82 | 276 | 1.7 | 1.7 | 0.00 | 0.00 | 0.00 | 20 | 1007.2 |
| 20260507002031 | 82 | 277 | 1.7 | 1.7 | 0.00 | 0.00 | 0.00 | 20 | 1007.2 |
| 20260507001020 | 83 | 253 | 1.7 | 1.7 | 0.00 | 0.00 | 0.00 | 20 | 1007.3 |
| 20260507000026 | 83 | 273 | 1.7 | 1.7 | 0.00 | 0.00 | 0.00 | 20 | 1007.2 |
| 20260506235019 | 83 | 264 | 1.7 | 1.7 | 0.00 | 0.00 | 0.00 | 21 | 1007.2 |
| 20260506234051 | 83 | 281 | 1.7 | 2.6 | 0.00 | 0.00 | 0.00 | 21 | 1007.2 |
| 20260506233030 | 83 | 319 | 1.7 | 1.7 | 0.00 | 0.00 | 0.00 | 21 | 1007.2 |
| 20260506232025 | 83 | 309 | 1.7 | 1.7 | 0.00 | 0.00 | 0.00 | 21 | 1007.4 |
| 20260506231023 | 83 | 261 | 1.7 | 1.7 | 0.00 | 0.00 | 0.00 | 21 | 1007.5 |
| 20260506230057 | 84 | 260 | 1.7 | 2.6 | 0.00 | 0.00 | 0.00 | 21 | 1007.6 |
| 20260506225031 | 84 | 256 | 1.7 | 1.7 | 0.00 | 0.00 | 0.00 | 21 | 1007.6 |
| 20260506224030 | 84 | 314 | 1.7 | 1.7 | 0.00 | 0.00 | 0.00 | 22 | 1007.7 |
| 20260506223022 | 83 | 259 | 2.6 | 2.6 | 0.00 | 0.00 | 0.00 | 22 | 1007.7 |
| 20260506222041 | 83 | 236 | 1.7 | 1.7 | 0.00 | 0.00 | 0.00 | 21 | 1007.9 |
| 20260506221027 | 84 | 309 | 1.7 | 1.7 | 0.00 | 0.00 | 0.00 | 22 | 1008.0 |
| 20260506220032 | 83 | 264 | 1.7 | 1.7 | 0.00 | 0.00 | 0.00 | 22 | 1008.1 |
| 20260506215030 | 83 | 352 | 1.7 | 1.7 | 0.00 | 0.00 | 0.00 | 22 | 1008.2 |
| 20260506214031 | 83 | 278 | 1.7 | 1.7 | 0.00 | 0.00 | 0.00 | 23 | 1008.4 |
| 20260506213028 | 83 | 270 | 0.0 | 0.9 | 0.00 | 0.00 | 0.00 | 23 | 1008.4 |
| 20260506212024 | 83 | 0.0 | 0.0 | 0.00 | 0.00 | 0.00 | 24 | 1008.5 | |
| 20260506211045 | 83 | 0.0 | 0.0 | 0.00 | 0.00 | 0.00 | 24 | 1008.6 | |
| 20260506210040 | 83 | 0.0 | 0.0 | 0.00 | 0.00 | 0.00 | 25 | 1008.7 | |
| 20260506205035 | 82 | 0.0 | 0.0 | 0.00 | 0.00 | 0.00 | 25 | 1008.8 | |
| 20260506204030 | 82 | 0.0 | 0.0 | 0.00 | 0.00 | 0.00 | 24 | 1008.9 | |
| 20260506203102 | 82 | 0.0 | 0.0 | 0.00 | 0.00 | 0.00 | 24 | 1009.0 | |
| 20260506202022 | 81 | 0.0 | 0.0 | 0.00 | 0.00 | 0.00 | 25 | 1009.1 | |
| 20260506201032 | 82 | 0.0 | 0.0 | 0.00 | 0.00 | 0.00 | 26 | 1009.2 |